TimeMST,TemperatureF,Dew PointF,Humidity,Sea Level PressureIn,VisibilityMPH,Wind Direction,Wind SpeedMPH,Gust SpeedMPH,PrecipitationIn,Events,Conditions,WindDirDegrees,DateUTC
12:49 AM,33.8,33.8,100,30.22,9.0,NNE,3.5,-,N/A,,Overcast,30,2013-01-26 07:49:00
12:53 AM,34.0,33.1,96,30.24,10.0,NNE,3.5,-,N/A,,Overcast,30,2013-01-26 07:53:00
1:53 AM,34.0,32.0,92,30.20,10.0,Calm,Calm,-,N/A,,Mostly Cloudy,0,2013-01-26 08:53:00
2:09 AM,33.8,33.8,100,30.18,9.0,Calm,Calm,-,N/A,,Mostly Cloudy,0,2013-01-26 09:09:00
2:18 AM,35.6,33.8,93,30.18,9.0,Calm,Calm,-,N/A,,Mostly Cloudy,0,2013-01-26 09:18:00
2:53 AM,35.1,33.1,92,30.17,10.0,Calm,Calm,-,N/A,,Overcast,0,2013-01-26 09:53:00
3:12 AM,33.8,32.0,93,30.17,9.0,Calm,Calm,-,N/A,,Overcast,0,2013-01-26 10:12:00
3:53 AM,34.0,32.0,92,30.17,7.0,ENE,4.6,-,N/A,,Overcast,70,2013-01-26 10:53:00
4:53 AM,33.1,32.0,96,30.16,5.0,Calm,Calm,-,0.00,Rain,Light Rain,0,2013-01-26 11:53:00
5:03 AM,33.8,33.8,100,30.14,6.0,Calm,Calm,-,0.00,Rain,Light Rain,0,2013-01-26 12:03:00
5:53 AM,34.0,33.1,96,30.14,8.0,NNE,4.6,-,0.01,Rain,Light Rain,30,2013-01-26 12:53:00
6:53 AM,34.0,33.1,96,30.15,5.0,East,4.6,-,0.01,Rain,Light Rain,80,2013-01-26 13:53:00
7:53 AM,34.0,33.1,96,30.14,3.0,ENE,4.6,-,0.05,Rain,Light Rain,60,2013-01-26 14:53:00
8:53 AM,34.0,33.1,96,30.14,3.0,ENE,5.8,-,0.06,Rain,Light Rain,70,2013-01-26 15:53:00
9:10 AM,33.8,33.8,100,30.10,4.0,ENE,8.1,-,0.01,Rain,Light Rain,70,2013-01-26 16:10:00
9:32 AM,33.8,33.8,100,30.10,4.0,NE,8.1,-,0.01,Rain,Light Rain,50,2013-01-26 16:32:00
9:53 AM,34.0,33.1,96,30.12,7.0,NE,6.9,-,0.01,Rain,Light Rain,50,2013-01-26 16:53:00
10:50 AM,35.6,33.8,93,30.07,10.0,NNE,6.9,-,0.00,,Overcast,30,2013-01-26 17:50:00
10:53 AM,36.0,34.0,93,30.09,10.0,NNE,8.1,-,0.00,Rain,Light Rain,30,2013-01-26 17:53:00
11:53 AM,37.0,36.0,96,30.05,10.0,Calm,Calm,-,0.01,,Overcast,0,2013-01-26 18:53:00
12:18 PM,37.4,35.6,93,30.02,1.8,Calm,Calm,-,0.03,Rain,Light Rain,0,2013-01-26 19:18:00
12:26 PM,37.4,35.6,93,30.01,1.2,Calm,Calm,-,0.03,Rain,Light Rain,0,2013-01-26 19:26:00
12:29 PM,37.4,35.6,93,30.00,2.0,Calm,Calm,-,0.03,Rain,Light Rain,0,2013-01-26 19:29:00
12:53 PM,37.0,36.0,96,30.01,2.5,Calm,Calm,-,0.06,Rain,Rain,0,2013-01-26 19:53:00
1:05 PM,37.4,35.6,93,29.99,1.0,Calm,Calm,-,0.02,Rain,Rain,0,2013-01-26 20:05:00
1:12 PM,37.4,37.4,100,29.98,0.5,Calm,Calm,-,0.04,Fog-Rain,Rain,0,2013-01-26 20:12:00
1:30 PM,37.4,37.4,100,29.97,1.0,Calm,Calm,-,0.07,Rain,Light Rain,0,2013-01-26 20:30:00
1:35 PM,37.4,37.4,100,29.97,2.0,Calm,Calm,-,0.08,Rain,Light Rain,0,2013-01-26 20:35:00
1:53 PM,37.0,36.0,96,29.98,1.0,Calm,Calm,-,0.12,Rain,Rain,0,2013-01-26 20:53:00
2:00 PM,37.4,37.4,100,29.96,0.5,Calm,Calm,-,0.02,Fog-Rain,Rain,0,2013-01-26 21:00:00
2:10 PM,37.4,37.4,100,29.95,0.2,Calm,Calm,-,0.03,Fog-Rain,Rain,0,2013-01-26 21:10:00
2:19 PM,37.4,37.4,100,29.95,0.2,WSW,4.6,-,0.05,Fog-Rain,Rain,250,2013-01-26 21:19:00
2:26 PM,35.6,35.6,100,29.95,0.2,WSW,5.8,-,0.07,Fog-Rain,Rain,250,2013-01-26 21:26:00
2:53 PM,37.0,36.0,96,29.95,0.5,Calm,Calm,-,0.13,Fog-Rain,Rain,0,2013-01-26 21:53:00
3:08 PM,35.6,35.6,100,29.93,0.2,SW,3.5,-,0.03,Fog-Rain,Rain,220,2013-01-26 22:08:00
3:15 PM,35.6,35.6,100,29.93,0.2,SSW,3.5,-,0.04,Fog-Rain,Rain,210,2013-01-26 22:15:00
3:25 PM,37.4,37.4,100,29.93,0.5,Calm,Calm,-,0.06,Fog-Rain,Light Rain,0,2013-01-26 22:25:00
3:41 PM,37.4,35.6,93,29.93,1.0,Calm,Calm,-,0.08,Rain,Light Rain,0,2013-01-26 22:41:00
3:43 PM,37.4,35.6,93,29.93,2.0,Calm,Calm,-,0.08,Rain,Light Rain,0,2013-01-26 22:43:00
3:46 PM,35.6,35.6,100,29.92,1.5,SW,3.5,-,0.08,Rain,Light Rain,230,2013-01-26 22:46:00
3:48 PM,35.6,35.6,100,29.92,0.8,WSW,3.5,-,0.09,Rain,Light Rain,250,2013-01-26 22:48:00
3:53 PM,36.0,36.0,100,29.94,0.5,Calm,Calm,-,0.09,Fog-Rain,Rain,0,2013-01-26 22:53:00
4:02 PM,37.4,37.4,100,29.92,1.5,Calm,Calm,-,0.02,Rain,Rain,0,2013-01-26 23:02:00
4:06 PM,35.6,35.6,100,29.93,2.5,WSW,3.5,-,0.02,Rain,Rain,240,2013-01-26 23:06:00
4:10 PM,35.6,35.6,100,29.92,1.0,SW,3.5,-,0.03,Rain,Rain,220,2013-01-26 23:10:00
4:14 PM,35.6,35.6,100,29.93,0.2,Calm,Calm,-,0.04,Fog-Rain,Rain,0,2013-01-26 23:14:00
4:28 PM,35.6,35.6,100,29.92,0.5,Calm,Calm,-,0.06,Fog-Rain,Rain,0,2013-01-26 23:28:00
4:35 PM,35.6,35.6,100,29.92,1.5,NNW,3.5,-,0.08,Rain,Rain,340,2013-01-26 23:35:00
4:39 PM,35.6,35.6,100,29.92,3.0,NW,3.5,-,0.08,Rain,Rain,320,2013-01-26 23:39:00
4:47 PM,35.6,35.6,100,29.91,1.5,Calm,Calm,-,0.10,Rain,Rain,0,2013-01-26 23:47:00
4:49 PM,35.6,35.6,100,29.91,0.8,Calm,Calm,-,0.11,Rain,Rain,0,2013-01-26 23:49:00
4:53 PM,35.1,35.1,100,29.94,0.5,Calm,Calm,-,0.12,Fog-Rain,Rain,0,2013-01-26 23:53:00
5:26 PM,35.6,35.6,100,29.93,0.2,Calm,Calm,-,0.07,Fog-Rain,Light Rain,0,2013-01-27 00:26:00
5:37 PM,35.6,35.6,100,29.92,1.2,North,9.2,-,0.08,Rain,Light Rain,10,2013-01-27 00:37:00
5:39 PM,35.6,35.6,100,29.92,4.0,North,10.4,-,0.08,Rain,Light Rain,10,2013-01-27 00:39:00
5:53 PM,35.1,35.1,100,29.94,9.0,North,9.2,-,0.09,Rain,Light Rain,10,2013-01-27 00:53:00
6:35 PM,35.6,33.8,93,29.93,10.0,South,3.5,-,0.01,,Overcast,180,2013-01-27 01:35:00
6:53 PM,35.1,34.0,96,29.95,9.0,East,6.9,-,0.01,Rain,Light Rain,100,2013-01-27 01:53:00
7:40 PM,33.8,33.8,100,29.92,9.0,Calm,Calm,-,0.04,Rain,Light Rain,0,2013-01-27 02:40:00
7:53 PM,34.0,34.0,100,29.95,7.0,North,3.5,-,0.04,Rain,Light Rain,10,2013-01-27 02:53:00
8:15 PM,33.8,33.8,100,29.91,7.0,ENE,9.2,-,0.01,Rain,Light Rain,70,2013-01-27 03:15:00
8:36 PM,35.6,35.6,100,29.91,8.0,East,6.9,-,0.01,Rain,Light Rain,90,2013-01-27 03:36:00
8:53 PM,35.1,35.1,100,29.92,5.0,ESE,4.6,-,0.01,Rain,Light Rain,110,2013-01-27 03:53:00
9:22 PM,35.6,35.6,100,29.91,4.0,Variable,3.5,-,0.03,Rain,Light Rain,0,2013-01-27 04:22:00
9:53 PM,36.0,36.0,100,29.93,3.0,East,4.6,-,0.06,Rain,Light Rain,90,2013-01-27 04:53:00
10:30 PM,35.6,35.6,100,29.92,1.8,NW,3.5,-,0.04,Rain,Light Rain,320,2013-01-27 05:30:00
10:36 PM,35.6,35.6,100,29.92,0.8,WNW,3.5,-,0.04,Rain,Light Rain,300,2013-01-27 05:36:00
10:53 PM,35.1,35.1,100,29.94,0.8,Calm,Calm,-,0.05,Rain,Light Rain,0,2013-01-27 05:53:00
11:00 PM,35.6,35.6,100,29.93,1.0,Calm,Calm,-,0.00,Rain,Light Rain,0,2013-01-27 06:00:00
11:08 PM,35.6,35.6,100,29.93,2.0,Variable,3.5,-,0.01,Rain,Light Rain,0,2013-01-27 06:08:00
11:16 PM,35.6,35.6,100,29.93,6.0,West,3.5,-,0.02,Rain,Light Rain,260,2013-01-27 06:16:00
11:53 PM,35.1,35.1,100,29.95,8.0,WSW,5.8,-,0.05,Rain,Light Rain,250,2013-01-27 06:53:00